[[{"header":{"parameterUnit":"m.s-1","parameterCategory":1,"la1":30.2991,"la2":30.254,"lo1":-89.0895,"lo2":-89.0444,"dy":0.0017,"dx":0.0017,"nx":28,"ny":28,"refTime":"2025-08-06T21:00:00:Z","depth":0,"parameterNumber":2,"parameterNumberName":"U-component_of_WINDS"},"data":[0,0,0,0,0,0,0,0,0,0,0,0,0,0,0,0,0,0,0,0,0,0,0,0,0,0,0,0,0,0,0,0,0,0,0,0,0,0,0,0,0,0,0,0,0,0,0,0,0,0,0,0,0,0,0,0,0,0,-2.7975,-2.7974,0,-2.7898,-2.7898,-2.7897,-2.782,-2.7819,-2.7818,-2.7817,-2.774,-2.7739,-2.7737,0,0,0,0,0,0,0,0,0,0,0,0,0,-2.8055,-2.8054,-2.7975,-2.7974,-2.7973,-2.7899,-2.7898,-2.7896,-2.782,-2.7819,-2.7817,-2.7816,-2.774,-2.7739,-2.7737,0,0,0,0,0,0,0,0,0,0,0,0,0,-2.8004,-2.8053,-2.7975,-2.7926,-2.792,-2.7899,-2.7897,-2.7896,-2.782,-2.7819,-2.7817,-2.7816,-2.774,-2.7739,-2.7737,-2.7758,0,0,-2.7732,-2.7732,0,0,0,0,0,0,0,0,-2.8006,-2.8001,-2.7934,-2.7929,-2.7923,-2.7867,-2.7897,-2.785,-2.7821,-2.7858,-2.7817,-2.7815,-2.7783,-2.7778,-2.7767,-2.7755,-2.7751,-2.7732,-2.7731,-2.773,-2.773,0,0,0,0,0,0,0,-2.801,-2.8003,-2.7944,-2.7933,-2.7926,-2.7908,-2.7899,-2.7888,-2.783,-2.7855,-2.7849,-2.7841,-2.778,-2.7769,-2.7765,-2.775,-2.7732,-2.7731,-2.773,-2.7729,-2.7752,-2.7754,0,0,0,0,0,0,-2.8021,-2.8007,-2.7947,-2.7942,-2.7962,-2.7907,-2.7897,-2.7887,-2.783,-2.782,-2.7842,-2.7838,-2.7772,-2.7767,-2.7762,-2.7783,-2.773,-2.7729,-2.7728,-2.7751,-2.7753,-2.7755,0,0,0,0,0,0,-2.8023,-2.8016,-2.795,-2.7973,-2.7963,-2.7908,-2.7896,-2.7886,-2.7875,-2.7821,-2.781,-2.7842,-2.7771,-2.7764,-2.776,-2.778,-2.7728,-2.7727,-2.7749,-2.7751,-2.7754,-2.7827,0,0,0,0,0,0,-2.8026,-2.8018,-2.8025,-2.7974,-2.7962,-2.7949,-2.7897,-2.7885,-2.7872,-2.7865,-2.7817,-2.7808,-2.7769,-2.7763,-2.7758,-2.7776,-2.7725,-2.7747,-2.775,-2.7753,-2.7822,-2.7831,-2.7839,0,0,0,0,0,-2.8029,-2.8048,-2.8025,-2.8019,-2.797,-2.795,-2.7944,-2.7899,-2.7874,-2.7881,-2.7846,-2.781,-2.7778,-2.7763,-2.7757,-2.7775,-2.7745,-2.7749,-2.7753,-2.7818,-2.7829,-2.7839,0,0,0,0,0,0,-2.8103,-2.8041,-2.8015,-2.8018,-2.799,-2.7937,-2.7945,-2.7912,-2.789,-2.7885,-2.783,-2.782,-2.7822,-2.7798,-2.7782,-2.7793,-2.7757,-2.7759,-2.7809,-2.7819,-2.7827,-2.7833,-2.7724,0,0,0,0,0,-2.812,-2.8109,-2.8055,-2.8063,-2.8051,-2.8001,-2.799,-2.7958,-2.7927,-2.7915,-2.788,-2.7852,-2.7835,-2.7826,-2.7808,-2.7819,-2.7807,-2.7828,-2.7837,-2.7844,-2.7847,-2.7851,-2.786,-2.7766,-2.7766,-2.7766,0,0,-2.8154,-2.8119,-2.8115,-2.8077,-2.8052,-2.8042,-2.7991,-2.7983,-2.7975,-2.7913,-2.7907,-2.7881,-2.7846,-2.785,-2.7849,-2.783,-2.787,-2.7848,-2.7854,-2.7853,-2.7856,-2.7865,-2.7873,-2.7769,-2.7768,-2.7768,0,0,-2.8212,-2.8184,-2.8188,-2.8164,-2.8126,-2.8093,-2.8094,-2.8046,-2.8026,-2.802,-2.7973,-2.7964,-2.7937,-2.7914,-2.7899,-2.7949,-2.7915,-2.7945,-2.7989,-2.7994,-2.8002,-2.8008,-2.8026,-2.8034,-2.7948,-2.7948,-2.7949,0,-2.826,-2.8243,-2.8195,-2.8189,-2.8174,-2.8118,-2.8122,-2.8101,-2.806,-2.8051,-2.8029,-2.7995,-2.7967,-2.7965,-2.7978,-2.7967,-2.7967,-2.795,-2.8004,-2.801,-2.8015,-2.8032,-2.804,-2.7952,-2.7952,-2.7952,-2.7951,0,-2.8304,-2.8293,-2.8301,-2.8262,-2.8248,-2.8248,-2.82,-2.8192,-2.8161,-2.813,-2.8125,-2.8089,-2.8064,-2.8061,-2.8031,-2.8055,-2.8044,-2.8014,-2.7976,-2.8029,-2.8044,-2.805,-2.7958,-2.7957,-2.7955,-2.7954,0,0,-2.8405,-2.8341,-2.8344,-2.8327,-2.8281,-2.8272,-2.827,-2.8245,-2.8239,-2.8213,-2.821,-2.8189,-2.8161,-2.8144,-2.8111,-2.8116,-2.8159,-2.8085,-2.8084,-2.8101,-2.8184,-2.8207,-2.8215,-2.8136,-2.8137,-2.8138,-2.8187,0,-2.8456,-2.8447,-2.8404,-2.8409,-2.8399,-2.8346,-2.8344,-2.8316,-2.8288,-2.8275,-2.8244,-2.823,-2.8195,-2.8184,-2.8186,-2.8153,-2.8175,-2.8149,-2.8133,-2.8133,-2.8144,-2.8223,-2.8247,-2.8295,-2.8193,-2.8194,-2.8195,0,-2.8513,-2.849,-2.8494,-2.845,-2.8444,-2.8443,-2.8417,-2.8405,-2.8374,-2.8353,-2.8334,-2.8297,-2.8292,-2.8257,-2.825,-2.8234,-2.8225,-2.8208,-2.8209,-2.8205,-2.8167,-2.8223,-2.831,-2.8317,-2.8203,-2.8203,-2.8202,0,-2.8587,-2.8558,-2.8556,-2.8543,-2.8491,-2.8492,-2.847,-2.8436,-2.8424,-2.8402,-2.8394,-2.8371,-2.8359,-2.8343,-2.8301,-2.8279,-2.8299,-2.826,-2.8282,-2.8283,-2.8289,-2.8289,-2.8376,-2.8283,-2.8283,-2.8283,-2.8283,0,-2.8648,-2.8652,-2.8589,-2.8588,-2.8592,-2.8543,-2.8548,-2.8522,-2.8493,-2.8486,-2.8439,-2.8434,-2.8379,-2.8369,-2.8336,-2.8336,-2.833,-2.8314,-2.8305,-2.8318,-2.832,-2.8311,-2.8307,-2.8285,-2.8284,-2.8284,-2.8283,0,-2.8731,-2.8689,-2.8684,-2.8636,-2.8624,-2.8629,-2.8588,-2.8585,-2.8554,-2.8547,-2.8542,-2.8494,-2.8479,-2.8435,-2.8409,-2.8388,-2.8397,-2.838,-2.8408,-2.8402,-2.8427,-2.8425,-2.8511,-2.852,-2.8422,-2.8423,-2.8423,0,-2.8773,-2.8775,-2.8727,-2.872,-2.87,-2.8688,-2.8676,-2.8628,-2.8617,-2.8581,-2.8584,-2.8565,-2.8547,-2.8526,-2.8488,-2.8469,-2.8451,-2.8483,-2.8448,-2.8461,-2.8452,-2.8453,-2.8453,-2.8491,-2.8492,-2.8493,-2.8494,0,-2.8851,-2.8831,-2.8814,-2.8791,-2.8778,-2.8758,-2.8734,-2.8731,-2.8677,-2.8668,-2.8652,-2.8638,-2.8612,-2.8594,-2.8568,-2.8546,-2.8512,-2.8505,-2.8509,-2.8523,-2.8538,-2.8531,-2.8429,-2.8503,-2.8502,-2.8502,-2.8501,-2.8501,-2.8915,-2.8915,-2.8882,-2.8865,-2.8843,-2.8823,-2.8819,-2.8787,-2.8773,-2.8747,-2.872,-2.8708,-2.8676,-2.8638,-2.8619,-2.8609,-2.8591,-2.8596,-2.8598,-2.86,-2.8607,-2.854,-2.8604,-2.8604,-2.8604,-2.8603,-2.8603,0,-2.8991,-2.8967,-2.8953,-2.8923,-2.891,-2.8878,-2.8852,-2.8843,-2.8833,-2.8807,-2.879,-2.8773,-2.8755,-2.8717,-2.8697,-2.8696,-2.868,-2.8692,-2.8692,-2.8688,-2.8624,-2.8623,-2.8706,-2.8706,-2.8706,-2.8706,-2.8706,-2.8706,-2.903,-2.9028,-2.9004,-2.8991,-2.8967,-2.8954,-2.8941,-2.8923,-2.8902,-2.8884,-2.8869,-2.8844,-2.8814,-2.8791,-2.8774,-2.8763,-2.8758,-2.8776,-2.8761,-2.8702,-2.8692,-2.8683,-2.8681,-2.8775,-2.8775,-2.8825,-2.8825,-2.8826]},{"header":{"parameterUnit":"m.s-1","parameterCategory":1,"la1":30.2991,"la2":30.254,"lo1":-89.0895,"lo2":-89.0444,"dy":0.0017,"dx":0.0017,"nx":28,"ny":28,"refTime":"2025-08-06T21:00:00:Z","depth":0,"parameterNumber":3,"parameterNumberName":"V-component_of_WINDS"},"data":[0,0,0,0,0,0,0,0,0,0,0,0,0,0,0,0,0,0,0,0,0,0,0,0,0,0,0,0,0,0,0,0,0,0,0,0,0,0,0,0,0,0,0,0,0,0,0,0,0,0,0,0,0,0,0,0,0,0,0.254,0.254,0,0.256,0.256,0.256,0.2615,0.2617,0.2618,0.2619,0.2638,0.2637,0.2636,0,0,0,0,0,0,0,0,0,0,0,0,0,0.2549,0.2548,0.254,0.254,0.2541,0.256,0.256,0.256,0.2615,0.2617,0.2618,0.2619,0.2638,0.2637,0.2636,0,0,0,0,0,0,0,0,0,0,0,0,0,0.2554,0.2548,0.254,0.257,0.2573,0.256,0.256,0.256,0.2615,0.2617,0.2618,0.262,0.2638,0.2637,0.2636,0.2594,0,0,0.2633,0.2633,0,0,0,0,0,0,0,0,0.2554,0.2554,0.2566,0.2568,0.2571,0.2587,0.257,0.2572,0.2614,0.2599,0.2619,0.2621,0.2619,0.262,0.262,0.2595,0.2596,0.2633,0.2633,0.2632,0.2632,0,0,0,0,0,0,0,0.2554,0.2553,0.2548,0.2566,0.2569,0.2583,0.2585,0.257,0.2599,0.2601,0.2605,0.2606,0.2621,0.262,0.262,0.2596,0.2633,0.2632,0.2632,0.2631,0.2537,0.2535,0,0,0,0,0,0,0.2549,0.2553,0.2547,0.2548,0.2567,0.2581,0.2584,0.258,0.2599,0.2604,0.2605,0.2609,0.2621,0.2621,0.2621,0.2572,0.2632,0.2631,0.2631,0.2539,0.2537,0.2535,0,0,0,0,0,0,0.2549,0.2548,0.2546,0.2552,0.2553,0.2579,0.2574,0.258,0.2579,0.2602,0.2607,0.2599,0.2622,0.2623,0.26,0.2574,0.2631,0.263,0.2542,0.2539,0.2536,0.2475,0,0,0,0,0,0,0.2549,0.2548,0.2532,0.2551,0.2552,0.2525,0.2572,0.2579,0.2577,0.2583,0.2598,0.2602,0.2624,0.2601,0.2599,0.2574,0.2629,0.2544,0.254,0.2537,0.2479,0.247,0.2463,0,0,0,0,0,0.2549,0.2514,0.2531,0.253,0.2533,0.2524,0.2524,0.255,0.2575,0.2559,0.2574,0.2602,0.2577,0.2599,0.2597,0.257,0.2546,0.2541,0.2537,0.2483,0.2472,0.2463,0,0,0,0,0,0,0.2491,0.2517,0.2536,0.2507,0.2513,0.2533,0.2514,0.2538,0.2537,0.2542,0.2574,0.2577,0.255,0.2558,0.2582,0.253,0.2566,0.2561,0.2526,0.2515,0.2507,0.2505,0.2629,0,0,0,0,0,0.2475,0.2466,0.2489,0.246,0.2462,0.2488,0.2484,0.2504,0.2511,0.2514,0.2528,0.2533,0.2527,0.2522,0.2517,0.2481,0.2485,0.2462,0.2454,0.2447,0.2442,0.2422,0.2412,0.252,0.2521,0.2521,0,0,0.2441,0.2455,0.2446,0.2449,0.2456,0.2445,0.2489,0.2476,0.2468,0.2512,0.2492,0.2502,0.251,0.248,0.2468,0.2486,0.2413,0.2441,0.2435,0.2434,0.2417,0.2406,0.2397,0.2518,0.2518,0.2519,0,0,0.2374,0.2384,0.236,0.2367,0.2377,0.2394,0.2388,0.2405,0.2414,0.2394,0.2427,0.2417,0.2406,0.241,0.2411,0.2345,0.237,0.2343,0.2298,0.2279,0.227,0.2263,0.2238,0.2229,0.2338,0.2338,0.2338,0,0.2331,0.2316,0.2345,0.2329,0.2329,0.2369,0.2346,0.235,0.2358,0.2356,0.2377,0.2363,0.2372,0.2343,0.2327,0.2327,0.2321,0.2341,0.2269,0.2262,0.2255,0.2232,0.2223,0.2334,0.2335,0.2335,0.2336,0,0.2261,0.225,0.223,0.2237,0.2235,0.2215,0.2241,0.2235,0.2255,0.2269,0.2248,0.226,0.2258,0.2253,0.2273,0.2227,0.2238,0.2264,0.23,0.2241,0.222,0.2211,0.2329,0.2331,0.2332,0.2333,0,0,0.2157,0.2181,0.2173,0.2176,0.219,0.2182,0.2164,0.2162,0.2156,0.216,0.2145,0.2135,0.2158,0.2159,0.2179,0.2162,0.2108,0.219,0.219,0.2173,0.2057,0.2036,0.2026,0.2125,0.2123,0.2122,0.2056,0,0.2092,0.2063,0.2089,0.2054,0.2044,0.2082,0.2066,0.2073,0.2086,0.2079,0.2093,0.2085,0.2117,0.2118,0.2103,0.2117,0.2085,0.2123,0.211,0.2109,0.2105,0.2015,0.1993,0.193,0.2048,0.2046,0.2045,0,0.2013,0.2013,0.1977,0.1993,0.199,0.1975,0.1976,0.1969,0.1977,0.1988,0.1988,0.2013,0.1996,0.2032,0.2008,0.2033,0.203,0.2036,0.2034,0.2033,0.2072,0.201,0.1911,0.1901,0.2033,0.2034,0.2035,0,0.1938,0.193,0.1908,0.191,0.1928,0.1917,0.1924,0.1934,0.1931,0.1931,0.193,0.1928,0.1927,0.1924,0.1948,0.1972,0.192,0.1959,0.1928,0.1927,0.1914,0.1914,0.1811,0.1914,0.1914,0.1914,0.1914,0,0.1862,0.1838,0.1875,0.186,0.1834,0.1865,0.1838,0.1849,0.1858,0.1846,0.188,0.1868,0.19,0.1891,0.1909,0.1886,0.1885,0.1893,0.1898,0.1889,0.1888,0.1886,0.189,0.1911,0.1912,0.1912,0.1913,0,0.1774,0.1798,0.1775,0.1795,0.1799,0.1779,0.1796,0.1783,0.1799,0.1783,0.1781,0.1806,0.1797,0.1821,0.1816,0.1828,0.1793,0.1806,0.179,0.1794,0.1761,0.1763,0.1652,0.1639,0.1751,0.175,0.1749,0,0.1724,0.1706,0.1724,0.1719,0.1724,0.1715,0.1713,0.1742,0.1738,0.1745,0.1731,0.1726,0.1723,0.1707,0.1724,0.172,0.1732,0.1693,0.1731,0.1723,0.1729,0.1729,0.1727,0.1685,0.1683,0.1682,0.1681,0,0.1631,0.1643,0.1638,0.1637,0.1634,0.1634,0.1637,0.1631,0.1662,0.1655,0.1647,0.1645,0.164,0.1633,0.1633,0.164,0.1665,0.167,0.1662,0.1652,0.1643,0.1646,0.1767,0.1672,0.1673,0.1673,0.1674,0.1674,0.1559,0.1545,0.1555,0.1548,0.1554,0.1556,0.1544,0.1559,0.1553,0.1551,0.1569,0.1556,0.1565,0.1567,0.1571,0.1562,0.1579,0.1568,0.1565,0.1562,0.1555,0.1646,0.1562,0.1562,0.1562,0.1563,0.1563,0,0.1466,0.1475,0.1469,0.1472,0.1466,0.1492,0.1496,0.149,0.1479,0.1485,0.1481,0.1471,0.1464,0.1481,0.1477,0.1466,0.1477,0.1464,0.1464,0.1465,0.1541,0.1547,0.1454,0.1454,0.1455,0.1455,0.1455,0.1455,0.1418,0.1395,0.1408,0.1388,0.1397,0.1385,0.1386,0.1387,0.1392,0.1379,0.1374,0.1386,0.1395,0.1392,0.1387,0.1392,0.1389,0.137,0.1379,0.1449,0.146,0.147,0.1476,0.137,0.137,0.1304,0.1304,0.1303]}]]